Location: Hamburg
(53.5511°N, 9.9937°E)
Time: 20:48:24
(UTC+02:00)

ISS - Visible Passes

Search period start: 24 September 2021 00:00
Search period end: 04 October 2021 00:00
Orbit: 419 x 423 km, 51.6° (Epoch: 24 September)

Date Brightness Start Highest point End Pass type
(mag) Time Alt. Az. Time Alt. Az. Time Alt. Az.
24 Sep -3.7 21:01:31 10° W 21:04:52 64° S 21:05:32 49° SE visible
24 Sep -0.6 22:38:18 10° W 22:38:31 11° W 22:38:31 11° W visible
25 Sep -3.6 20:14:39 10° WSW 20:18:00 62° S 20:20:21 18° E visible
25 Sep -2.1 21:51:23 10° W 21:53:21 29° WSW 21:53:21 29° WSW visible
26 Sep -3.6 21:04:29 10° W 21:07:48 56° S 21:08:10 52° SSE visible
27 Sep -3.6 20:17:35 10° W 20:20:56 62° S 20:22:59 21° ESE visible
27 Sep -1.5 21:54:27 10° W 21:55:58 21° WSW 21:55:58 21° WSW visible
28 Sep -2.9 21:07:28 10° W 21:10:39 39° SSW 21:10:48 39° SSW visible
29 Sep -3.1 20:20:32 10° W 20:23:48 47° SSW 20:25:38 22° SE visible
29 Sep -0.9 21:57:49 10° WSW 21:58:38 14° WSW 21:58:38 14° WSW visible
30 Sep -3.3 19:33:36 10° W 19:36:56 55° S 19:40:14 10° ESE visible
30 Sep -2.0 21:10:38 10° W 21:13:22 23° SSW 21:13:31 23° SSW visible
01 Oct -2.3 20:23:34 10° W 20:26:35 30° SSW 20:28:27 18° SSE visible
02 Oct -2.6 19:36:34 10° W 19:39:44 38° SSW 19:42:54 10° SE visible
02 Oct -1.1 21:14:30 10° WSW 21:15:55 12° SW 21:16:27 12° SSW visible
03 Oct -1.3 20:26:56 10° WSW 20:29:11 17° SW 20:31:26 10° S visible
